Home > Weather > Delmenhorst > Past weeks

Flag for Germany Past Weather in Delmenhorst, Lower Saxony, Germany — Yesterday and Last 2 Weeks

Now
90 °F

Sunny.


Feels Like: 87 °F
Forecast: 65 / 86 °F
Wind: 13 mph from Southeast

Location: Bremen Airport

Current Time: Aug 25, 2016 at 7:01:18 PM

Latest Report: Aug 25, 2016 at 6:20 PM


Visibility: 10 mi

Pressure: 29.95 "Hg

Humidity: 29%

Dew Point: 54 °F

Location of DelmenhorstLocation

Past Weather in Delmenhorst — Graph

°F

Delmenhorst Temperature Yesterday

Maximum temperature yesterday: 88 °F (at 4:50 PM)
Minimum temperature yesterday: 61 °F (at 1:50 AM)
Average temperature yesterday: 74 °F

High & Low Weather Summary for the Past Weeks

 TemperatureHumidityPressure
High90 °F (Aug 25, 3:20 PM)100% (Aug 11, 12:20 AM)30.33 "Hg (Aug 11, 12:20 AM)
Low45 °F (Aug 11, 1:20 AM)29% (Aug 25, 4:20 PM)29.80 "Hg (Aug 18, 4:20 PM)
Average63 °F80%30.08 "Hg
* Reported Aug 10 5:20 PM — Aug 25 5:50 PM, Delmenhorst, Weather by CustomWeather, © 2016

Note: Actual official high and low records may vary slightly from our data, if they occured in-between our weather recording intervals... More about our weather records

Advertising

Delmenhorst Weather History for the Previous 24 Hours

Scroll right to see more
 ConditionsComfort  
Time TempWeatherWind HumidityBarometerVisibility
5:50 PM
Thu, Aug 25
90 °FSunny.13 mph29%29.98 "Hg10 mi
5:20 PM90 °FPassing clouds.13 mph29%29.98 "HgN/A
4:50 PM90 °FSunny.15 mph29%29.98 "Hg10 mi
4:20 PM90 °FSunny.14 mph29%30.01 "Hg10 mi
3:50 PM90 °FPassing clouds.14 mph31%30.01 "HgN/A
3:20 PM90 °FPassing clouds.14 mph33%30.01 "HgN/A
2:50 PM88 °FPassing clouds.15 mph38%30.04 "HgN/A
2:20 PM88 °FPassing clouds.14 mph40%30.04 "HgN/A
1:50 PM88 °FPassing clouds.16 mph40%30.04 "HgN/A
1:20 PM86 °FPassing clouds.16 mph40%30.04 "HgN/A
12:50 PM86 °FPassing clouds.12 mph43%30.07 "HgN/A
12:20 PM86 °FPassing clouds.8 mph46%30.07 "HgN/A
11:50 AM84 °FPassing clouds.8 mph48%30.07 "HgN/A
11:20 AM81 °FPassing clouds.9 mph54%30.09 "HgN/A
10:50 AM79 °FSunny.7 mph58%30.09 "Hg10 mi
10:20 AM77 °FPassing clouds.7 mph61%30.09 "HgN/A
9:50 AM75 °FPassing clouds.7 mph65%30.09 "HgN/A
9:20 AM72 °FPassing clouds.6 mph69%30.09 "HgN/A
8:50 AM70 °FSunny.7 mph73%30.09 "Hg10 mi
8:20 AM68 °FPassing clouds.5 mph73%30.09 "HgN/A
7:50 AM66 °FPassing clouds.7 mph78%30.09 "HgN/A
7:20 AM66 °FClear.6 mph78%30.09 "Hg10 mi
6:50 AM66 °FClear.6 mph73%30.09 "Hg10 mi
6:20 AM64 °FPassing clouds.5 mph78%30.09 "HgN/A
5:50 AM63 °FPassing clouds.3 mph83%30.09 "HgN/A
5:20 AM64 °FClear.2 mph78%30.12 "Hg10 mi
4:50 AM66 °FClear.6 mph78%30.12 "Hg10 mi
4:20 AM68 °FClear.7 mph73%30.12 "Hg10 mi
3:50 AM68 °FClear.7 mph73%30.12 "Hg10 mi
3:20 AM68 °FClear.6 mph73%30.12 "Hg10 mi
2:50 AM70 °FClear.8 mph69%30.12 "Hg10 mi
2:20 AM72 °FClear.9 mph65%30.12 "Hg10 mi
1:50 AM72 °FClear.10 mph65%30.12 "Hg10 mi
1:20 AM73 °FClear.10 mph65%30.12 "Hg10 mi
12:50 AM73 °FClear.9 mph65%30.12 "Hg10 mi
12:20 AM73 °FClear.9 mph65%30.12 "Hg10 mi
11:50 PM
Wed, Aug 24
73 °FClear.8 mph65%30.12 "Hg10 mi
11:20 PM75 °FClear.7 mph65%30.12 "Hg10 mi
10:50 PM77 °FClear.8 mph61%30.12 "Hg10 mi
10:20 PM77 °FClear.7 mph61%30.15 "Hg10 mi
9:50 PM77 °FClear.6 mph61%30.15 "Hg10 mi
9:20 PM79 °FSunny.6 mph54%30.15 "Hg10 mi
8:50 PM81 °FSunny.6 mph51%30.15 "Hg10 mi
8:20 PM81 °FSunny.5 mph51%30.15 "Hg10 mi
7:50 PM84 °FSunny.5 mph45%30.15 "Hg10 mi
7:20 PM84 °FSunny.7 mph45%30.15 "Hg10 mi
Weather by CustomWeather, © 2016

See weather overviewHow to use our weather pages